Regional Weather Roundup
Issued by NWS Newport/Morehead, NC

Current Version | Previous Version | Text Only | Print | Product List | Glossary On
Versions: 1 2 3 4 5 6 7 8 9 10 11 12 13 14 15 16 17 18 19 20 21 22 23 24 25 26 27 28 29 30 31 32 33 34 35 36 37 38 39 40 41 42 43 44 45 46 47 48 49 50
723
ASUS42 KMHX 281914
RWRMHX
WEATHER ROUNDUP FOR EASTERN NORTH CAROLINA
NATIONAL WEATHER SERVICE NEWPORT/MOREHEAD CITY NC
300 PM EDT SUN MAY 28 2017

NOTE: "FAIR" INDICATES FEW OR NO CLOUDS BELOW 12,000 FEET
WITH NO SIGNIFICANT WEATHER AND/OR OBSTRUCTIONS TO VISIBILITY

NCZ015>017-031-032-045>047-102-103-282000-
NORTH COAST

CITY           SKY/WX    TMP DP  RH WIND       PRES   REMARKS
EDENTON        PTSUNNY   86  71  60 SW12      29.75F
ELIZABETH CITY CLOUDY    79  75  87 E9        29.75F
KITTY HAWK     CLEAR     84  70  63 S6G16     29.76F
MANTEO         CLOUDY    81  73  77 S16       29.77F

$$

NCZ045>047-081-094-103-104-282000-
CENTRAL COAST

CITY           SKY/WX    TMP DP  RH WIND       PRES   REMARKS
FRISCO         CLOUDY    82  72  71 SW9G18    29.83F

$$

NCZ095-097-098-100-101-282000-
SOUTHERN COAST

CITY           SKY/WX    TMP DP  RH WIND       PRES   REMARKS
BEAUFORT       CLOUDY    82  75  79 SW20      29.84S
CEDAR ISLAND   NOT AVBL
JACKSONVILLE   NOT AVBL
PINEY ISLAND   CLOUDY   N/A N/A N/A SW18G25   29.81F
WILMINGTON     CLOUDY    88  72  58 SW15G23   29.84F


$$

NCZ011>013-027>030-043-044-078>080-089-090>093-098-282000-
COASTAL PLAIN

CITY           SKY/WX    TMP DP  RH WIND       PRES   REMARKS
AHOSKIE        NOT AVBL
CLINTON        SUNNY     90  66  45 SW14      29.84R
ELIZABETHTOWN  SUNNY     90  64  42 W12G18    29.84F
GOLDSBORO      MOSUNNY   91  66  44 SW16      29.79F
GREENVILLE     SUNNY     90  64  43 SW16G23   29.81F
HAVELOCK       NOT AVBL
KENANSVILLE    MOSUNNY   90  64  43 SW8       29.81F
KINSTON        MOSUNNY   90  63  40 W14G23    29.81F
NEW BERN       MOSUNNY   91  68  46 W15G22    29.81F
RICHLANDS      NOT AVBL
ROCKY MOUNT    SUNNY     87  67  51 SW12G22   29.79F
WASHINGTON     SUNNY     89  66  45 SW17G24   29.78S
WHITEVILLE     MOSUNNY   89  66  46 W7G18     29.85S

$$

AMZ130-135-150-152-154-156-158-170-250-252-270-ANZ085-086-088-633-658-670-282000-
MARINE OBSERVATIONS

STATION/POSITION TIME  TEMP    WIND        PRES    WAVE   SWELL
                       AIR SEA DIR/SP/G            HT/PER HT/PER
                 (UTC) (F)     (DEG/KT/KT) (MB)    (FT/S) (FT/S)
CHESAPEAKE LIGHT NOT AVBL
64 E VA BEACH    1850   69 67  130/  6/  8 1009.8    3/ 6   3/ 6
DUCK             1842   72 67  140/ 13/ 14 1007.9
2 E DUCK         1830      69                N/A     2/ 7
OREGON INLET     1848          170/ 11/ 14   N/A
13E OREGON INLT  1848      68                N/A     2/ 6   2/ 7
HATTERAS CG      1842   79 74  190/  6/ 11 1009.8
DIAMOND BUOY     1850   78 77  210/ 14/ 17 1010.2    3/ 6   2/ 7
CAPE LOOKOUT     1800   79     200/ 15/ 19 1010.5
BEAUFORT LAB     1842   79 74  210/ 12/ 19 1009.7
30 SE NEW RVR IN 1808   77 77  230/ 14/ 19 1011.3
30 SE NEW RVR IN 1843      76                N/A     4/ 5
27 SE WRIGHTSVLE 1808   76 77  210/ 17/ 23 1011.1
5 SE WRIGHTSVLE  1808   77 76  200/ 12/ 19 1011.4
225 S CAPE HAT   1850   77 77  240/ 12/ 14 1016.2    4/ 5   2/ 8
41 SE CHARLESTON 1850   77 76  220/ 14/ 17 1013.0    3/ 5   2/ 7

$$




USA.gov is the U.S. government's official web portal to all federal, state and local government web resources and services.